Change the Weather History Date:

Saturday, July 20, 2013

  Actual Average Record
Temperature  
Mean Temperature 77 °F 76 °F  
Max Temperature 92 °F 90 °F 114 °F (1932)
Min Temperature 61 °F 62 °F 51 °F (1911)
Cooling Degree Days 11    
Growing Degree Days 26 (Base 50)    
Moisture  
Dew Point 62 °F    
Average Humidity 64    
Maximum Humidity 93    
Minimum Humidity 34    
Precipitation  
Precipitation 0.04 in 0.10 in 1.00 in (1973)
Month to date precipitation 1.35 2.10  
Year to date precipitation 7.34 13.42  
Sea Level Pressure  
Sea Level Pressure 29.89 in    
Wind  
Wind Speed 5 mph (SE)    
Max Wind Speed 33 mph    
Max Gust Speed 68 mph    
Visibility 10 miles    
Events      
T = Trace of Precipitation, MM = Missing Value Source: NWS Daily Summary

Daily Weather History Graph

Daily Weather History Graph

Search for Another Location

Airport or City:

Trip Planner

Search our weather history database for the weather conditions in past years. The results will help you decide how hot, cold, wet, or windy it might be!

Date:

Astronomy

Jul. 20, 2013 Rise Set
Actual Time 6:29 AM CDT 9:07 PM CDT
Civil Twilight 5:58 AM CDT 9:38 PM CDT
Nautical Twilight 5:18 AM CDT 10:17 PM CDT
Astronomical Twilight 4:34 AM CDT 11:02 PM CDT
Moon 7:12 PM CDT (7/20) 4:11 AM CDT (7/20)
Length of Visible Light 15h 40m
Length of Day
14h 37m
Waxing Gibbous, 94% of the Moon is Illuminated
Jul 20
Waxing Gibbous
Jul 22
Full
Jul 29
Last Quarter
Aug 6
New
Aug 14
First Quarter

Hourly Weather History & Observations

Time (CDT) Temp. Heat Index Dew Point Humidity Pressure Visibility Wind Dir Wind Speed Gust Speed Precip Events Conditions
12:53 AM 70.0 °F - 63.0 °F 78% 29.94 in 10.0 mi Calm Calm - N/A   Clear
1:53 AM 66.9 °F - 64.0 °F 90% 29.93 in 10.0 mi South 3.5 mph - N/A   Clear
2:53 AM 66.9 °F - 63.0 °F 87% 29.93 in 10.0 mi Calm Calm - N/A   Clear
3:53 AM 64.9 °F - 63.0 °F 93% 29.94 in 10.0 mi WSW 4.6 mph - N/A   Clear
4:53 AM 66.0 °F - 63.0 °F 90% 29.92 in 10.0 mi West 6.9 mph - N/A   Clear
5:53 AM 66.0 °F - 62.1 °F 87% 29.90 in 10.0 mi West 4.6 mph - N/A   Clear
6:53 AM 62.1 °F - 60.1 °F 93% 29.91 in 6.0 mi Calm Calm - N/A   Clear
7:53 AM 66.9 °F - 63.0 °F 87% 29.92 in 9.0 mi Calm Calm - N/A   Clear
8:53 AM 71.1 °F - 63.0 °F 75% 29.91 in 10.0 mi East 3.5 mph - N/A   Clear
9:53 AM 77.0 °F - 64.0 °F 64% 29.91 in 10.0 mi South 4.6 mph - N/A   Clear
10:53 AM 81.0 °F 81.9 °F 62.1 °F 52% 29.91 in 10.0 mi ESE 3.5 mph - N/A   Clear
11:53 AM 84.9 °F 85.4 °F 62.1 °F 46% 29.91 in 10.0 mi East 6.9 mph - N/A   Clear
12:53 PM 87.1 °F 86.7 °F 60.1 °F 40% 29.90 in 10.0 mi SSE 8.1 mph - N/A   Clear
1:53 PM 90.0 °F 88.8 °F 57.9 °F 34% 29.88 in 10.0 mi ESE 11.5 mph - N/A   Clear
2:53 PM 90.0 °F 88.8 °F 57.9 °F 34% 29.86 in 10.0 mi Variable 5.8 mph - N/A   Clear
3:53 PM 90.0 °F 89.1 °F 59.0 °F 35% 29.84 in 10.0 mi SE 4.6 mph - N/A   Scattered Clouds
4:53 PM 88.0 °F 89.6 °F 64.9 °F 46% 29.83 in 10.0 mi East 19.6 mph 25.3 mph N/A   Mostly Cloudy
5:53 PM 88.0 °F 89.3 °F 64.0 °F 45% 29.81 in 10.0 mi ESE 17.3 mph - N/A   Partly Cloudy
6:53 PM 84.9 °F 86.1 °F 64.0 °F 49% 29.83 in 10.0 mi ESE 17.3 mph - N/A   Clear
7:53 PM 82.9 °F 84.4 °F 64.0 °F 53% 29.82 in 10.0 mi ESE 11.5 mph - N/A   Clear
8:53 PM 79.0 °F - 64.9 °F 62% 29.83 in 10.0 mi SE 9.2 mph - N/A   Clear
9:53 PM 75.9 °F - 62.1 °F 62% 29.86 in 10.0 mi ENE 11.5 mph 67.9 mph N/A   Clear
10:53 PM 73.0 °F - 62.1 °F 68% 29.89 in 10.0 mi ESE 5.8 mph - N/A   Clear
11:53 PM 70.0 °F - 59.0 °F 68% 29.96 in 6.0 mi North 33.4 mph 47.2 mph N/A   Haze